Location: Rounton
(54.4000°N, 1.3500°W)
Time: 00:08:47
(UTC+00:00)

Vanguard 1 Rocket - All Passes

Search period start: 30 November 2021 00:00
Search period end: 10 December 2021 00:00
Orbit: 650 x 4226 km, 34.3° (Epoch: 29 November)

Date Brightness Start Highest point End Pass type
(mag) Time Alt. Az. Time Alt. Az. Time Alt. Az.
30 Nov - 01:22:29 10° SSE 01:28:19 14° SE 01:35:39 10° ESE visible
30 Nov - 03:40:15 10° SSW 03:52:18 33° SSE 04:11:03 10° ESE visible
30 Nov - 06:03:35 10° WSW 06:19:24 41° S 06:41:50 10° ESE visible
30 Nov - 08:30:08 10° W 08:47:40 32° SSW 09:08:06 10° SSE daylight
30 Nov - 11:03:59 10° WSW 11:14:12 14° SW 11:24:33 10° SSW daylight
01 Dec - 02:30:58 10° SSW 02:40:39 25° SE 02:55:19 10° E visible
01 Dec - 04:52:38 10° SW 05:06:23 39° S 05:27:33 10° ESE visible
01 Dec - 07:17:39 10° WSW 07:34:21 37° SSW 07:56:06 10° SE visible
01 Dec - 09:46:56 10° W 10:01:52 22° SW 10:18:02 10° S daylight
02 Dec - 01:23:07 10° SSE 01:29:43 16° SE 01:38:36 10° ESE visible
02 Dec - 03:42:21 10° SW 03:53:59 35° SSE 04:12:35 10° ESE visible
02 Dec - 06:05:58 10° WSW 06:21:05 39° S 06:42:55 10° SE visible
02 Dec - 08:32:53 10° W 08:49:03 28° SSW 09:08:15 10° SSE daylight
03 Dec - 02:32:48 10° SSW 02:42:17 27° SSE 02:57:07 10° E visible
03 Dec - 04:54:58 10° WSW 05:08:09 39° S 05:28:48 10° ESE visible
03 Dec - 07:20:13 10° WSW 07:35:56 33° SSW 07:56:40 10° SSE visible
03 Dec - 09:50:48 10° WSW 10:03:04 17° SW 10:16:27 10° SSW daylight
04 Dec - 01:24:22 10° S 01:31:17 19° SE 01:41:03 10° ESE visible
04 Dec - 03:44:35 10° SW 03:55:46 35° SSE 04:14:01 10° ESE visible
04 Dec - 06:08:28 10° WSW 06:22:49 36° S 06:43:47 10° SE visible
04 Dec - 08:35:56 10° WSW 08:50:27 24° SW 09:07:50 10° S daylight
05 Dec - 02:34:51 10° SSW 02:44:02 29° SSE 02:58:48 10° ESE visible
05 Dec - 04:57:25 10° WSW 05:10:00 37° S 05:29:54 10° SE visible
05 Dec - 07:22:59 10° WSW 07:37:32 29° SSW 07:56:52 10° SSE visible
05 Dec - 09:56:15 10° WSW 10:04:18 13° SW 10:12:55 10° SSW daylight
06 Dec - 01:26:01 10° S 01:32:59 20° SE 01:43:12 10° ESE visible
06 Dec - 03:46:57 10° SW 03:57:40 35° S 04:15:19 10° ESE visible
06 Dec - 06:11:08 10° WSW 06:24:36 33° SSW 06:44:23 10° SE visible
06 Dec - 08:39:30 10° WSW 08:51:52 19° SW 09:06:38 10° S daylight
07 Dec - 00:19:28 10° SSE 00:22:30 12° SE 00:26:02 10° ESE visible
07 Dec - 02:37:05 10° SW 02:45:56 29° SSE 03:00:23 10° ESE visible
07 Dec - 05:00:00 10° WSW 05:11:54 35° S 05:30:48 10° SE visible
07 Dec - 07:26:01 10° WSW 07:39:11 25° SSW 07:56:34 10° SSE visible
08 Dec - 01:27:57 10° SSW 01:34:49 22° SSE 01:45:11 10° ESE visible
08 Dec - 03:49:27 10° SW 03:59:38 34° S 04:16:31 10° ESE visible
08 Dec - 06:13:56 10° WSW 06:26:26 29° SSW 06:44:39 10° SSE visible
08 Dec - 08:44:04 10° WSW 08:53:22 15° SW 09:04:07 10° SSW daylight
09 Dec - 00:20:19 10° SSE 00:24:15 13° SE 00:29:12 10° ESE visible
09 Dec - 02:39:27 10° SW 02:47:55 29° SSE 03:01:51 10° ESE visible
09 Dec - 05:02:41 10° WSW 05:13:52 32° S 05:31:30 10° SE visible
09 Dec - 07:29:28 10° WSW 07:40:52 20° SSW 07:55:37 10° S visible
